| time (UTC) | temp F | wind direction | speed MPH | gust MPH | rain 1hr in | rain 24hr in | rain mn in | humidity % | barometer mb |
| 20260508063033 | 56 | 0 | 0.0 | 0.0 | 0.00 | 0.17 | 0.00 | 67 | 1013.6 |
| 20260508061534 | 56 | 0 | 0.0 | 0.0 | 0.00 | 0.17 | 0.00 | 66 | 1013.4 |
| 20260508060041 | 56 | 0 | 0.0 | 0.0 | 0.00 | 0.17 | 0.00 | 66 | 1013.0 |
| 20260508054603 | 56 | 292 | 1.0 | 3.0 | 0.00 | 0.17 | 0.00 | 67 | 1012.7 |
| 20260508053037 | 56 | 0 | 1.0 | 7.0 | 0.00 | 0.17 | 0.00 | 67 | 1012.7 |
| 20260508051537 | 56 | 0 | 0.0 | 3.0 | 0.00 | 0.17 | 0.00 | 67 | 1012.8 |
| 20260508050038 | 56 | 320 | 1.0 | 3.0 | 0.00 | 0.17 | 0.00 | 67 | 1012.5 |
| 20260508044537 | 55 | 0 | 0.0 | 3.0 | 0.00 | 0.17 | 0.00 | 67 | 1012.4 |
| 20260508043044 | 55 | 0 | 0.0 | 0.0 | 0.00 | 0.17 | 0.00 | 66 | 1012.1 |
| 20260508041538 | 55 | 0 | 0.0 | 0.0 | 0.00 | 0.17 | 0.00 | 65 | 1012.3 |
| 20260508040045 | 56 | 0 | 0.0 | 3.0 | 0.00 | 0.17 | 0.00 | 64 | 1012.2 |
| 20260508034535 | 56 | 71 | 2.0 | 5.0 | 0.00 | 0.17 | 0.00 | 63 | 1011.8 |
| 20260508033034 | 59 | 30 | 1.0 | 7.0 | 0.00 | 0.17 | 0.00 | 62 | 1011.9 |
| 20260508031549 | 59 | 296 | 5.0 | 10.0 | 0.00 | 0.17 | 0.00 | 62 | 1012.0 |
| 20260508030039 | 58 | 274 | 4.0 | 11.0 | 0.00 | 0.17 | 0.00 | 64 | 1012.4 |
| 20260508024535 | 58 | 279 | 4.0 | 10.0 | 0.00 | 0.17 | 0.00 | 66 | 1012.4 |
| 20260508023034 | 58 | 266 | 4.0 | 9.0 | 0.00 | 0.17 | 0.00 | 67 | 1012.4 |
| 20260508021541 | 57 | 288 | 4.0 | 10.0 | 0.00 | 0.17 | 0.00 | 68 | 1012.6 |
| 20260508020033 | 57 | 283 | 4.0 | 9.0 | 0.00 | 0.17 | 0.00 | 69 | 1012.6 |
| 20260508014534 | 56 | 290 | 3.0 | 6.0 | 0.00 | 0.17 | 0.00 | 68 | 1012.8 |
| 20260508013040 | 56 | 298 | 4.0 | 8.0 | 0.00 | 0.17 | 0.00 | 68 | 1013.0 |
| 20260508011541 | 57 | 287 | 3.0 | 8.0 | 0.00 | 0.17 | 0.00 | 68 | 1013.1 |
| 20260508010039 | 58 | 282 | 3.0 | 7.0 | 0.00 | 0.17 | 0.00 | 68 | 1013.2 |
| 20260508004540 | 58 | 0 | 0.0 | 3.0 | 0.00 | 0.17 | 0.00 | 68 | 1013.5 |
| 20260508003032 | 57 | 290 | 3.0 | 7.0 | 0.00 | 0.17 | 0.00 | 68 | 1013.9 |
| 20260508001539 | 57 | 0 | 2.0 | 6.0 | 0.00 | 0.17 | 0.00 | 68 | 1014.0 |
| 20260508000037 | 58 | 301 | 1.0 | 3.0 | 0.00 | 0.17 | 0.00 | 67 | 1014.1 |
| 20260507234544 | 58 | 279 | 3.0 | 7.0 | 0.00 | 0.17 | 0.00 | 68 | 1014.3 |
| 20260507233037 | 58 | 298 | 3.0 | 5.0 | 0.00 | 0.17 | 0.00 | 68 | 1014.4 |
| 20260507231542 | 58 | 279 | 3.0 | 9.0 | 0.00 | 0.17 | 0.00 | 68 | 1014.5 |
| 20260507230034 | 58 | 276 | 4.0 | 9.0 | 0.00 | 0.17 | 0.00 | 67 | 1014.4 |
| 20260507224533 | 58 | 258 | 4.0 | 7.0 | 0.00 | 0.17 | 0.00 | 67 | 1014.4 |
| 20260507223032 | 58 | 286 | 2.0 | 6.0 | 0.00 | 0.17 | 0.00 | 67 | 1014.4 |
| 20260507221535 | 59 | 288 | 5.0 | 8.0 | 0.00 | 0.17 | 0.00 | 66 | 1014.3 |
| 20260507220034 | 59 | 271 | 2.0 | 4.0 | 0.00 | 0.17 | 0.00 | 66 | 1014.1 |
| 20260507214540 | 59 | 252 | 1.0 | 3.0 | 0.00 | 0.17 | 0.17 | 65 | 1013.9 |
| 20260507213041 | 60 | 0 | 0.0 | 0.0 | 0.00 | 0.17 | 0.17 | 65 | 1014.0 |
| 20260507211545 | 60 | 0 | 0.0 | 1.0 | 0.00 | 0.17 | 0.17 | 65 | 1013.9 |
| 20260507210034 | 60 | 0 | 0.0 | 6.0 | 0.00 | 0.17 | 0.17 | 65 | 1013.8 |
| 20260507204532 | 60 | 159 | 1.0 | 5.0 | 0.00 | 0.17 | 0.17 | 64 | 1013.8 |
| 20260507203039 | 59 | 139 | 3.0 | 9.0 | 0.00 | 0.17 | 0.17 | 64 | 1013.8 |
| 20260507201538 | 59 | 0 | 0.0 | 8.0 | 0.00 | 0.17 | 0.17 | 65 | 1013.7 |
| 20260507200037 | 60 | 173 | 3.0 | 8.0 | 0.00 | 0.17 | 0.17 | 64 | 1013.7 |
| 20260507194534 | 60 | 191 | 4.0 | 10.0 | 0.00 | 0.17 | 0.17 | 64 | 1013.3 |
| 20260507193035 | 60 | 132 | 3.0 | 8.0 | 0.00 | 0.17 | 0.17 | 64 | 1013.0 |
| 20260507191538 | 61 | 137 | 3.0 | 8.0 | 0.00 | 0.17 | 0.17 | 64 | 1012.8 |
| 20260507190039 | 61 | 140 | 2.0 | 8.0 | 0.00 | 0.17 | 0.17 | 64 | 1012.6 |
| 20260507184535 | 61 | 121 | 4.0 | 8.0 | 0.00 | 0.17 | 0.17 | 63 | 1012.5 |
| 20260507183035 | 61 | 134 | 5.0 | 9.0 | 0.03 | 0.17 | 0.17 | 63 | 1012.2 |
| 20260507181532 | 61 | 144 | 2.0 | 6.0 | 0.14 | 0.17 | 0.17 | 63 | 1012.0 |
| 20260507180033 | 61 | 146 | 2.0 | 8.0 | 0.14 | 0.17 | 0.17 | 64 | 1012.0 |
| 20260507174549 | 61 | 148 | 2.0 | 6.0 | 0.14 | 0.17 | 0.17 | 63 | 1012.2 |
| 20260507173033 | 62 | 0 | 1.0 | 6.0 | 0.11 | 0.14 | 0.14 | 63 | 1012.3 |
| 20260507171542 | 63 | 138 | 1.0 | 8.0 | 0.00 | 0.03 | 0.03 | 62 | 1012.1 |
| 20260507170039 | 63 | 56 | 4.0 | 10.0 | 0.02 | 0.03 | 0.03 | 61 | 1011.7 |
| 20260507164539 | 64 | 15 | 3.0 | 10.0 | 0.03 | 0.03 | 0.03 | 61 | 1011.7 |
| 20260507163037 | 64 | 0 | 2.0 | 6.0 | 0.03 | 0.03 | 0.03 | 61 | 1011.4 |
| 20260507161540 | 64 | 281 | 3.0 | 9.0 | 0.02 | 0.02 | 0.02 | 61 | 1011.1 |
| 20260507160048 | 64 | 260 | 7.0 | 12.0 | 0.00 | 0.00 | 0.00 | 59 | 1011.1 |
| 20260507154539 | 65 | 244 | 6.0 | 12.0 | 0.00 | 0.00 | 0.00 | 58 | 1011.0 |
| 20260507153038 | 66 | 360 | 10.0 | 15.0 | 0.00 | 0.00 | 0.00 | 56 | 1011.0 |
| 20260507151538 | 68 | 194 | 1.0 | 7.0 | 0.00 | 0.00 | 0.00 | 57 | 1011.2 |
| 20260507150039 | 68 | 144 | 2.0 | 7.0 | 0.00 | 0.00 | 0.00 | 56 | 1011.3 |
| 20260507144537 | 67 | 149 | 3.0 | 7.0 | 0.00 | 0.00 | 0.00 | 56 | 1011.1 |
| 20260507143037 | 67 | 239 | 3.0 | 8.0 | 0.00 | 0.00 | 0.00 | 57 | 1011.0 |
| 20260507141538 | 67 | 161 | 7.0 | 12.0 | 0.00 | 0.00 | 0.00 | 56 | 1011.0 |
| 20260507140045 | 67 | 133 | 7.0 | 14.0 | 0.00 | 0.00 | 0.00 | 55 | 1011.0 |
| 20260507134536 | 67 | 140 | 8.0 | 17.0 | 0.00 | 0.00 | 0.00 | 54 | 1011.0 |
| 20260507133034 | 68 | 149 | 8.0 | 15.0 | 0.00 | 0.00 | 0.00 | 52 | 1011.2 |
| 20260507131603 | 69 | 143 | 10.0 | 18.0 | 0.00 | 0.00 | 0.00 | 49 | 1011.1 |
| 20260507130034 | 71 | 132 | 8.0 | 17.0 | 0.00 | 0.00 | 0.00 | 46 | 1011.4 |
| 20260507124549 | 71 | 129 | 6.0 | 12.0 | 0.00 | 0.00 | 0.00 | 46 | 1011.3 |
| 20260507123043 | 70 | 101 | 6.0 | 14.0 | 0.00 | 0.00 | 0.00 | 46 | 1011.5 |
| 20260507121541 | 70 | 48 | 6.0 | 17.0 | 0.00 | 0.00 | 0.00 | 46 | 1011.7 |
| 20260507120039 | 70 | 125 | 7.0 | 15.0 | 0.00 | 0.00 | 0.00 | 46 | 1011.8 |
| 20260507114533 | 69 | 119 | 6.0 | 12.0 | 0.00 | 0.00 | 0.00 | 48 | 1011.7 |
| 20260507113102 | 69 | 57 | 6.0 | 14.0 | 0.00 | 0.00 | 0.00 | 48 | 1011.8 |
| 20260507111536 | 69 | 68 | 7.0 | 13.0 | 0.00 | 0.00 | 0.00 | 49 | 1012.0 |
| 20260507110038 | 69 | 65 | 6.0 | 14.0 | 0.00 | 0.00 | 0.00 | 49 | 1012.0 |
| 20260507104539 | 70 | 90 | 7.0 | 13.0 | 0.00 | 0.00 | 0.00 | 49 | 1012.1 |
| 20260507103038 | 70 | 74 | 5.0 | 15.0 | 0.00 | 0.00 | 0.00 | 49 | 1012.3 |
| 20260507101538 | 70 | 41 | 7.0 | 15.0 | 0.00 | 0.00 | 0.00 | 49 | 1012.2 |
| 20260507100046 | 69 | 98 | 6.0 | 15.0 | 0.00 | 0.00 | 0.00 | 49 | 1012.3 |
| 20260507094538 | 70 | 98 | 7.0 | 17.0 | 0.00 | 0.00 | 0.00 | 48 | 1012.3 |
| 20260507093039 | 70 | 108 | 6.0 | 15.0 | 0.00 | 0.00 | 0.00 | 48 | 1012.6 |
| 20260507091541 | 69 | 93 | 7.0 | 13.0 | 0.00 | 0.00 | 0.00 | 49 | 1012.4 |
| 20260507090039 | 68 | 105 | 7.0 | 15.0 | 0.00 | 0.00 | 0.00 | 50 | 1012.5 |
| 20260507084549 | 68 | 65 | 7.0 | 14.0 | 0.00 | 0.00 | 0.00 | 51 | 1012.3 |
| 20260507083036 | 68 | 76 | 5.0 | 11.0 | 0.00 | 0.00 | 0.00 | 50 | 1012.6 |
| 20260507081537 | 67 | 108 | 3.0 | 12.0 | 0.00 | 0.00 | 0.00 | 51 | 1012.5 |
| 20260507080038 | 67 | 67 | 3.0 | 12.0 | 0.00 | 0.00 | 0.00 | 51 | 1012.5 |
| 20260507074537 | 67 | 88 | 5.0 | 10.0 | 0.00 | 0.00 | 0.00 | 52 | 1012.5 |
| 20260507073036 | 66 | 77 | 7.0 | 12.0 | 0.00 | 0.00 | 0.00 | 52 | 1012.4 |
| 20260507071541 | 65 | 98 | 0.0 | 4.0 | 0.00 | 0.00 | 0.00 | 54 | 1012.1 |
| 20260507070034 | 64 | 0 | 0.0 | 5.0 | 0.00 | 0.00 | 0.00 | 56 | 1012.1 |
| 20260507064543 | 63 | 0 | 0.0 | 4.0 | 0.00 | 0.00 | 0.00 | 58 | 1012.0 |